DAL937 KATL-KTUS

Flight info

Callsign DAL937
Flight time N/A
Altitude 32000
Route KAJIN2 STNGA KM18K SUTTN CISAR SLR MUTEE KF18A DOZED EWM ZONNA2
Aircraft B739/M-SDE2E3FGHIRWXY/LB1

Departure

Time 2026-05-05 13:45
Airport Hartsfield Jackson Atlanta International Airport (KATL)

Arrival

Time N/A
Airport Tucson International Airport (KTUS)
Time Latitude Longitude Altitude Speed Heading
2026-05-05 13:13 33.63958 -84.43653 1005 ft 0 kts 90°
2026-05-05 13:34 33.63958 -84.43661 1005 ft 4 kts 90°
2026-05-05 13:34 33.63955 -84.43692 1005 ft 4 kts 65°
2026-05-05 13:34 33.63939 -84.43716 1005 ft 4 kts 24°
2026-05-05 13:35 33.63922 -84.43721 1005 ft 1 kts
2026-05-05 13:35 33.63919 -84.43721 1005 ft 0 kts
2026-05-05 13:36 33.63931 -84.43721 1005 ft 3 kts
2026-05-05 13:37 33.63968 -84.43721 1005 ft 7 kts
2026-05-05 13:37 33.64030 -84.43720 1005 ft 11 kts
2026-05-05 13:37 33.64113 -84.43719 1005 ft 13 kts
2026-05-05 13:37 33.64209 -84.43719 1005 ft 14 kts 359°
2026-05-05 13:38 33.64302 -84.43720 1005 ft 13 kts 359°
2026-05-05 13:38 33.64392 -84.43721 1005 ft 13 kts 359°
2026-05-05 13:38 33.64458 -84.43672 1005 ft 12 kts 80°
2026-05-05 13:38 33.64459 -84.43569 1005 ft 13 kts 90°
2026-05-05 13:39 33.64460 -84.43447 1005 ft 17 kts 90°
2026-05-05 13:39 33.64460 -84.43286 1006 ft 21 kts 90°
2026-05-05 13:39 33.64460 -84.43115 1006 ft 20 kts 90°
2026-05-05 13:39 33.64459 -84.42950 1005 ft 20 kts 90°
2026-05-05 13:40 33.64459 -84.42791 1005 ft 19 kts 89°
2026-05-05 13:40 33.64470 -84.42638 1005 ft 18 kts 71°
2026-05-05 13:40 33.64473 -84.42488 1005 ft 18 kts 92°
2026-05-05 13:40 33.64470 -84.42342 1005 ft 17 kts 92°
2026-05-05 13:41 33.64494 -84.42211 1005 ft 16 kts 59°
2026-05-05 13:41 33.64542 -84.42091 1005 ft 16 kts 85°
2026-05-05 13:41 33.64543 -84.41962 1005 ft 15 kts 90°
2026-05-05 13:41 33.64542 -84.41839 1005 ft 15 kts 90°
2026-05-05 13:42 33.64541 -84.41717 1006 ft 14 kts 91°
2026-05-05 13:42 33.64542 -84.41599 1006 ft 14 kts 90°
2026-05-05 13:42 33.64542 -84.41475 1006 ft 16 kts 90°
2026-05-05 13:42 33.64542 -84.41381 1006 ft 18 kts 90°
2026-05-05 13:43 33.64541 -84.41226 1006 ft 19 kts 90°
2026-05-05 13:43 33.64540 -84.41074 1006 ft 18 kts 90°
2026-05-05 13:43 33.64539 -84.40926 1005 ft 17 kts 91°
2026-05-05 13:43 33.64540 -84.40785 1005 ft 17 kts 86°
2026-05-05 13:44 33.64548 -84.40648 1005 ft 16 kts 85°
2026-05-05 13:44 33.64621 -84.40569 1003 ft 15 kts
2026-05-05 13:44 33.64680 -84.40649 1003 ft 15 kts 269°
2026-05-05 13:44 33.64680 -84.40806 1004 ft 37 kts 270°
2026-05-05 13:45 33.64678 -84.41393 1008 ft 102 kts 270°
2026-05-05 13:45 33.64678 -84.42474 1004 ft 155 kts 270°
2026-05-05 13:45 33.64680 -84.43920 1166 ft 182 kts 269°
2026-05-05 13:45 33.64670 -84.45484 1696 ft 193 kts 269°
2026-05-05 13:46 33.64872 -84.47128 2198 ft 206 kts 283°
2026-05-05 13:46 33.65232 -84.48893 2408 ft 228 kts 280°
2026-05-05 13:46 33.65588 -84.50755 2861 ft 237 kts 280°
2026-05-05 13:46 33.65968 -84.52768 3206 ft 255 kts 279°
2026-05-05 13:47 33.66363 -84.54881 3870 ft 261 kts 279°
2026-05-05 13:47 33.66761 -84.57015 4677 ft 263 kts 279°
2026-05-05 13:47 33.67157 -84.59178 5470 ft 265 kts 278°
2026-05-05 13:47 33.67525 -84.61328 6213 ft 269 kts 278°
2026-05-05 13:48 33.67897 -84.63546 6899 ft 273 kts 278°
2026-05-05 13:48 33.68275 -84.65787 7629 ft 275 kts 279°
2026-05-05 13:48 33.68656 -84.68046 8362 ft 277 kts 279°
2026-05-05 13:48 33.69041 -84.70326 9087 ft 280 kts 279°
2026-05-05 13:49 33.69430 -84.72626 9820 ft 282 kts 279°
2026-05-05 13:49 33.69803 -84.74965 10361 ft 291 kts 274°
2026-05-05 13:49 33.69565 -84.77428 10512 ft 309 kts 250°
2026-05-05 13:49 33.68787 -84.79928 10696 ft 330 kts 248°
2026-05-05 13:50 33.67923 -84.82566 10843 ft 349 kts 248°
2026-05-05 13:50 33.67005 -84.85348 10994 ft 367 kts 248°
2026-05-05 13:50 33.66048 -84.88261 11183 ft 381 kts 248°
2026-05-05 13:50 33.65073 -84.91249 11620 ft 387 kts 249°
2026-05-05 13:51 33.64093 -84.94270 12176 ft 389 kts 249°
2026-05-05 13:51 33.63114 -84.97297 12738 ft 391 kts 249°
2026-05-05 13:51 33.62126 -85.00354 13256 ft 394 kts 250°
2026-05-05 13:51 33.61133 -85.03428 13762 ft 396 kts 250°
2026-05-05 13:52 33.60133 -85.06521 14229 ft 399 kts 250°
2026-05-05 13:52 33.59127 -85.09630 14677 ft 401 kts 250°
2026-05-05 13:52 33.58115 -85.12753 15138 ft 402 kts 250°
2026-05-05 13:52 33.57109 -85.15855 15593 ft 404 kts 251°
2026-05-05 13:53 33.56090 -85.18994 16058 ft 405 kts 251°
2026-05-05 13:53 33.55068 -85.22145 16518 ft 406 kts 251°
2026-05-05 13:53 33.54222 -85.25384 16960 ft 406 kts 257°
2026-05-05 13:53 33.53583 -85.28684 17399 ft 407 kts 260°
2026-05-05 13:54 33.53016 -85.32013 17783 ft 408 kts 261°
2026-05-05 13:54 33.52460 -85.35358 18210 ft 410 kts 261°
2026-05-05 13:54 33.51892 -85.38707 18592 ft 411 kts 260°
2026-05-05 13:54 33.51305 -85.42069 18955 ft 413 kts 260°
2026-05-05 13:55 33.50703 -85.45431 19334 ft 413 kts 260°
2026-05-05 13:55 33.50090 -85.48788 19742 ft 412 kts 260°
2026-05-05 13:55 33.49468 -85.52154 20076 ft 414 kts 260°
2026-05-05 13:55 33.48840 -85.55527 20393 ft 416 kts 260°
2026-05-05 13:56 33.48208 -85.58916 20714 ft 417 kts 260°
2026-05-05 13:56 33.47571 -85.62313 21049 ft 418 kts 260°
2026-05-05 13:56 33.46934 -85.65711 21365 ft 420 kts 260°
2026-05-05 13:56 33.46292 -85.69128 21666 ft 421 kts 261°
2026-05-05 13:57 33.45656 -85.72508 21951 ft 422 kts 261°
2026-05-05 13:57 33.45009 -85.75941 22224 ft 424 kts 261°
2026-05-05 13:57 33.44357 -85.79398 22499 ft 425 kts 261°
2026-05-05 13:57 33.43704 -85.82857 22779 ft 426 kts 261°
2026-05-05 13:58 33.43048 -85.86322 23081 ft 427 kts 261°
2026-05-05 13:58 33.42390 -85.89793 23351 ft 428 kts 261°
2026-05-05 13:58 33.41730 -85.93272 23597 ft 430 kts 261°
2026-05-05 13:58 33.41065 -85.96769 23793 ft 431 kts 261°
2026-05-05 13:59 33.39727 -86.03786 24204 ft 433 kts 261°
2026-05-05 13:59 33.39054 -86.07309 24400 ft 435 kts 261°
2026-05-05 14:00 33.37700 -86.14378 24787 ft 437 kts 261°
2026-05-05 14:00 33.37018 -86.17933 24996 ft 438 kts 261°
2026-05-05 14:00 33.36334 -86.21484 25206 ft 438 kts 261°
2026-05-05 14:00 33.35657 -86.24999 25392 ft 439 kts 261°
2026-05-05 14:01 33.34960 -86.28609 25600 ft 440 kts 261°
2026-05-05 14:01 33.34272 -86.32166 25864 ft 439 kts 261°
2026-05-05 14:01 33.33584 -86.35720 26162 ft 438 kts 261°
2026-05-05 14:01 33.32896 -86.39261 26459 ft 436 kts 261°
2026-05-05 14:02 33.32218 -86.42748 26744 ft 436 kts 261°
2026-05-05 14:02 33.31533 -86.46272 27043 ft 434 kts 261°
2026-05-05 14:02 33.30848 -86.49788 27347 ft 434 kts 261°
2026-05-05 14:02 33.30164 -86.53291 27651 ft 433 kts 261°
2026-05-05 14:03 33.29479 -86.56793 27962 ft 432 kts 262°
2026-05-05 14:03 33.28795 -86.60286 28360 ft 429 kts 262°
2026-05-05 14:03 33.28117 -86.63741 28784 ft 426 kts 262°
2026-05-05 14:03 33.27440 -86.67188 29150 ft 425 kts 262°
2026-05-05 14:04 33.26764 -86.70625 29474 ft 425 kts 262°
2026-05-05 14:04 33.26087 -86.74063 29805 ft 424 kts 262°
2026-05-05 14:04 33.25412 -86.77488 30168 ft 423 kts 262°
2026-05-05 14:04 33.24746 -86.80857 30535 ft 420 kts 263°
2026-05-05 14:05 33.24073 -86.84248 30977 ft 416 kts 263°
2026-05-05 14:05 33.23410 -86.87586 31471 ft 411 kts 263°
2026-05-05 14:05 33.22754 -86.90879 31958 ft 405 kts 264°
2026-05-05 14:05 33.22103 -86.94159 32041 ft 407 kts 264°
2026-05-05 14:06 33.20800 -87.00716 32057 ft 404 kts 264°
2026-05-05 14:06 33.19499 -87.07228 32064 ft 402 kts 264°
2026-05-05 14:07 33.18201 -87.13713 32051 ft 401 kts 264°
2026-05-05 14:07 33.16901 -87.20184 32034 ft 401 kts 264°
2026-05-05 14:08 33.15597 -87.26657 32033 ft 401 kts 264°
2026-05-05 14:08 33.14288 -87.33134 32013 ft 402 kts 264°
2026-05-05 14:09 33.12985 -87.39566 31990 ft 402 kts 264°
2026-05-05 14:09 33.11726 -87.46040 32021 ft 397 kts 269°
2026-05-05 14:10 33.11404 -87.52560 32033 ft 393 kts 274°
2026-05-05 14:10 33.11236 -87.59080 32030 ft 394 kts 274°
2026-05-05 14:11 33.11034 -87.65627 32029 ft 395 kts 273°
2026-05-05 14:11 33.10800 -87.72184 32021 ft 396 kts 273°
2026-05-05 14:12 33.10550 -87.78742 32022 ft 396 kts 273°
2026-05-05 14:12 33.10293 -87.85296 32027 ft 395 kts 273°
2026-05-05 14:13 33.10035 -87.91802 32021 ft 395 kts 273°
2026-05-05 14:13 33.09772 -87.98353 32019 ft 395 kts 273°
2026-05-05 14:14 33.09507 -88.04884 32021 ft 395 kts 273°